Back to Top

Language: 

My Weather Underground Personal Weather Station Historical Data with Graphs...

Delerius Weather Station Historical Data
Daily Summary for April 12, 2017 Units:  English    Metric   Both
« Previous Day
Next Day »
Daily Weekly Monthly Yearly Custom
  High: Low: Average:
Temperature: 56.7 °F 44.8 °F 50.2 °F
Dew Point: 48.0 °F 38.4 °F 42.6 °F
Humidity: 85 % 58 % 76 %
Wind Speed: 19.0 mph 7.0 mph 14.6 mph
Wind Gust: 34.0 mph - -
Wind:- - WNW
Pressure: 30.12 in 29.93 in -
Precipitation: 0.00 in    
Historical Graphs
 
 
Tabular Data for April 12, 2017
Time Temperature Dew Point Pressure Wind Wind Speed Wind Gust Humidity Rainfall Rate (Hourly) solar Conditions
00:03 49.3 °F 42.7 °F 30.12 in WSW 9.0 mph 25.0 mph 78 % 0.00 in 0 W/m2
00:08 49.3 °F 42.7 °F 30.11 in WSW 7.0 mph 25.0 mph 78 % 0.00 in 0 W/m2
00:13 49.3 °F 43.0 °F 30.11 in West 8.0 mph 19.0 mph 79 % 0.00 in 0 W/m2
00:18 49.3 °F 43.0 °F 30.11 in West 11.0 mph 23.0 mph 79 % 0.00 in 0 W/m2
00:23 49.3 °F 43.0 °F 30.11 in West 12.0 mph 24.0 mph 79 % 0.00 in 0 W/m2
00:28 49.3 °F 43.0 °F 30.11 in West 11.0 mph 24.0 mph 79 % 0.00 in 0 W/m2
00:33 49.3 °F 43.0 °F 30.10 in West 11.0 mph 22.0 mph 79 % 0.00 in 0 W/m2
00:38 49.3 °F 43.0 °F 30.10 in West 12.0 mph 23.0 mph 79 % 0.00 in 0 W/m2
00:43 49.3 °F 43.0 °F 30.10 in West 12.0 mph 23.0 mph 79 % 0.00 in 0 W/m2
00:48 49.3 °F 43.0 °F 30.10 in West 11.0 mph 22.0 mph 79 % 0.00 in 0 W/m2
00:53 49.3 °F 43.0 °F 30.10 in West 12.0 mph 25.0 mph 79 % 0.00 in 0 W/m2
00:58 49.3 °F 43.0 °F 30.09 in West 15.0 mph 28.0 mph 79 % 0.00 in 0 W/m2
01:03 49.3 °F 43.0 °F 30.09 in West 13.0 mph 28.0 mph 79 % 0.00 in 0 W/m2
01:08 49.3 °F 43.0 °F 30.09 in West 12.0 mph 21.0 mph 79 % 0.00 in 0 W/m2
01:13 49.3 °F 43.0 °F 30.09 in West 12.0 mph 26.0 mph 79 % 0.00 in 0 W/m2
01:18 49.3 °F 43.0 °F 30.08 in West 14.0 mph 26.0 mph 79 % 0.00 in 0 W/m2
01:23 49.1 °F 42.9 °F 30.08 in West 15.0 mph 27.0 mph 79 % 0.00 in 0 W/m2
01:28 49.1 °F 42.9 °F 30.08 in West 15.0 mph 27.0 mph 79 % 0.00 in 0 W/m2
01:33 49.1 °F 42.9 °F 30.08 in West 15.0 mph 29.0 mph 79 % 0.00 in 0 W/m2
01:38 49.1 °F 42.9 °F 30.08 in West 15.0 mph 29.0 mph 79 % 0.00 in 0 W/m2
01:43 49.1 °F 42.9 °F 30.07 in West 16.0 mph 29.0 mph 79 % 0.00 in 0 W/m2
01:48 49.1 °F 42.9 °F 30.07 in West 17.0 mph 30.0 mph 79 % 0.00 in 0 W/m2
01:53 49.1 °F 42.9 °F 30.08 in West 15.0 mph 32.0 mph 79 % 0.00 in 0 W/m2
01:58 49.1 °F 42.9 °F 30.08 in West 15.0 mph 32.0 mph 79 % 0.00 in 0 W/m2
02:03 48.9 °F 42.7 °F 30.08 in West 18.0 mph 29.0 mph 79 % 0.00 in 0 W/m2
02:08 48.9 °F 42.7 °F 30.08 in West 18.0 mph 30.0 mph 79 % 0.00 in 0 W/m2
02:13 48.9 °F 42.7 °F 30.07 in West 15.0 mph 30.0 mph 79 % 0.00 in 0 W/m2
02:18 48.9 °F 42.7 °F 30.07 in West 14.0 mph 25.0 mph 79 % 0.00 in 0 W/m2
02:23 48.7 °F 42.5 °F 30.07 in West 15.0 mph 28.0 mph 79 % 0.00 in 0 W/m2
02:28 48.7 °F 42.5 °F 30.06 in West 17.0 mph 29.0 mph 79 % 0.00 in 0 W/m2
02:33 48.7 °F 42.5 °F 30.07 in West 18.0 mph 30.0 mph 79 % 0.00 in 0 W/m2
02:38 48.6 °F 42.3 °F 30.06 in West 16.0 mph 30.0 mph 79 % 0.00 in 0 W/m2
02:40 48.6 °F 42.3 °F 30.06 in West 16.0 mph 30.0 mph 79 % 0.00 in 0 W/m2
02:45 48.6 °F 42.3 °F 30.06 in West 15.0 mph 26.0 mph 79 % 0.00 in 0 W/m2
02:50 48.6 °F 42.3 °F 30.06 in West 17.0 mph 31.0 mph 79 % 0.00 in 0 W/m2
02:55 48.4 °F 42.2 °F 30.06 in West 17.0 mph 31.0 mph 79 % 0.00 in 0 W/m2
03:00 48.4 °F 41.8 °F 30.06 in West 17.0 mph 30.0 mph 78 % 0.00 in 0 W/m2
03:05 48.4 °F 41.8 °F 30.06 in West 17.0 mph 27.0 mph 78 % 0.00 in 0 W/m2
03:10 48.4 °F 41.8 °F 30.06 in West 17.0 mph 27.0 mph 78 % 0.00 in 0 W/m2
03:15 48.4 °F 41.8 °F 30.06 in West 16.0 mph 26.0 mph 78 % 0.00 in 0 W/m2
03:20 48.4 °F 42.2 °F 30.06 in West 16.0 mph 25.0 mph 79 % 0.00 in 0 W/m2
03:25 48.2 °F 42.0 °F 30.06 in West 15.0 mph 25.0 mph 79 % 0.00 in 0 W/m2
03:30 48.2 °F 42.0 °F 30.05 in WNW 14.0 mph 24.0 mph 79 % 0.00 in 0 W/m2
03:35 48.0 °F 42.1 °F 30.05 in WNW 15.0 mph 24.0 mph 80 % 0.00 in 0 W/m2
03:40 48.0 °F 42.1 °F 30.05 in West 16.0 mph 27.0 mph 80 % 0.00 in 0 W/m2
03:46 48.0 °F 42.1 °F 30.05 in West 16.0 mph 27.0 mph 80 % 0.00 in 0 W/m2
03:51 48.2 °F 42.3 °F 30.06 in WNW 16.0 mph 25.0 mph 80 % 0.00 in 0 W/m2
03:56 48.0 °F 42.1 °F 30.05 in WNW 17.0 mph 27.0 mph 80 % 0.00 in 0 W/m2
04:01 48.2 °F 42.0 °F 30.05 in WNW 18.0 mph 29.0 mph 79 % 0.00 in 0 W/m2
04:06 48.2 °F 41.7 °F 30.05 in WNW 18.0 mph 29.0 mph 78 % 0.00 in 0 W/m2
04:11 48.2 °F 41.7 °F 30.05 in WNW 17.0 mph 27.0 mph 78 % 0.00 in 0 W/m2
04:16 48.2 °F 41.7 °F 30.05 in WNW 16.0 mph 25.0 mph 78 % 0.00 in 0 W/m2
04:21 48.2 °F 41.7 °F 30.05 in WNW 17.0 mph 27.0 mph 78 % 0.00 in 0 W/m2
04:26 48.2 °F 41.7 °F 30.05 in WNW 17.0 mph 27.0 mph 78 % 0.00 in 0 W/m2
04:31 48.0 °F 41.5 °F 30.05 in WNW 16.0 mph 29.0 mph 78 % 0.00 in 0 W/m2
04:36 48.2 °F 41.7 °F 30.04 in WNW 16.0 mph 29.0 mph 78 % 0.00 in 0 W/m2
04:41 48.0 °F 41.2 °F 30.04 in WNW 16.0 mph 26.0 mph 77 % 0.00 in 0 W/m2
04:46 48.0 °F 41.2 °F 30.04 in WNW 16.0 mph 25.0 mph 77 % 0.00 in 0 W/m2
04:51 48.0 °F 41.2 °F 30.04 in WNW 17.0 mph 25.0 mph 77 % 0.00 in 0 W/m2
04:56 48.0 °F 41.2 °F 30.03 in WNW 16.0 mph 25.0 mph 77 % 0.00 in 0 W/m2
05:01 48.0 °F 41.5 °F 30.03 in WNW 15.0 mph 23.0 mph 78 % 0.00 in 0 W/m2
05:06 48.0 °F 41.5 °F 30.03 in WNW 16.0 mph 29.0 mph 78 % 0.00 in 0 W/m2
05:11 48.0 °F 41.5 °F 30.03 in WNW 18.0 mph 29.0 mph 78 % 0.00 in 0 W/m2
05:16 48.0 °F 41.5 °F 30.03 in WNW 17.0 mph 27.0 mph 78 % 0.00 in 0 W/m2
05:21 48.0 °F 41.5 °F 30.03 in WNW 16.0 mph 27.0 mph 78 % 0.00 in 0 W/m2
05:26 48.0 °F 41.5 °F 30.03 in WNW 17.0 mph 32.0 mph 78 % 0.00 in 0 W/m2
05:31 48.0 °F 41.5 °F 30.02 in WNW 18.0 mph 32.0 mph 78 % 0.00 in 0 W/m2
05:36 48.0 °F 41.5 °F 30.02 in WNW 18.0 mph 27.0 mph 78 % 0.00 in 0 W/m2
05:37 48.0 °F 41.5 °F 30.02 in WNW 18.0 mph 27.0 mph 78 % 0.00 in 0 W/m2
05:42 48.0 °F 41.5 °F 30.01 in WNW 17.0 mph 31.0 mph 78 % 0.00 in 0 W/m2
05:47 48.0 °F 41.8 °F 30.01 in WNW 18.0 mph 31.0 mph 79 % 0.00 in 0 W/m2
05:52 48.0 °F 41.5 °F 30.01 in WNW 17.0 mph 32.0 mph 78 % 0.00 in 0 W/m2
05:57 48.0 °F 41.5 °F 30.01 in WNW 18.0 mph 34.0 mph 78 % 0.00 in 0 W/m2
06:02 48.0 °F 41.8 °F 30.01 in WNW 18.0 mph 34.0 mph 79 % 0.00 in 0 W/m2
06:07 48.0 °F 41.8 °F 30.01 in WNW 16.0 mph 27.0 mph 79 % 0.00 in 0 W/m2
06:12 48.0 °F 41.8 °F 30.01 in WNW 16.0 mph 27.0 mph 79 % 0.00 in 0 W/m2
06:17 47.8 °F 41.6 °F 30.01 in WNW 16.0 mph 27.0 mph 79 % 0.00 in 0 W/m2
06:22 47.8 °F 42.0 °F 30.01 in WNW 16.0 mph 26.0 mph 80 % 0.00 in 7 W/m2
06:27 47.8 °F 42.0 °F 30.01 in WNW 16.0 mph 25.0 mph 80 % 0.00 in 11 W/m2
06:32 47.7 °F 41.8 °F 30.00 in WNW 16.0 mph 28.0 mph 80 % 0.00 in 11 W/m2
06:37 47.7 °F 42.1 °F 30.00 in WNW 16.0 mph 28.0 mph 81 % 0.00 in 11 W/m2
06:42 47.7 °F 42.1 °F 30.00 in WNW 15.0 mph 25.0 mph 81 % 0.00 in 14 W/m2
06:47 47.7 °F 42.1 °F 30.00 in WNW 16.0 mph 29.0 mph 81 % 0.00 in 16 W/m2
06:52 47.7 °F 42.1 °F 30.00 in WNW 17.0 mph 29.0 mph 81 % 0.00 in 18 W/m2
06:57 47.7 °F 42.1 °F 30.00 in WNW 16.0 mph 29.0 mph 81 % 0.00 in 19 W/m2
07:02 47.7 °F 42.1 °F 30.00 in WNW 17.0 mph 30.0 mph 81 % 0.00 in 25 W/m2
07:07 47.7 °F 42.1 °F 30.00 in WNW 18.0 mph 30.0 mph 81 % 0.00 in 26 W/m2
07:12 47.7 °F 42.1 °F 30.00 in WNW 17.0 mph 31.0 mph 81 % 0.00 in 25 W/m2
07:17 47.7 °F 42.4 °F 30.00 in WNW 16.0 mph 31.0 mph 82 % 0.00 in 30 W/m2
07:22 47.7 °F 42.4 °F 30.00 in WNW 16.0 mph 29.0 mph 82 % 0.00 in 40 W/m2
07:27 47.7 °F 42.4 °F 30.00 in WNW 17.0 mph 29.0 mph 82 % 0.00 in 44 W/m2
07:32 47.7 °F 42.8 °F 30.00 in WNW 19.0 mph 30.0 mph 83 % 0.00 in 42 W/m2
07:33 47.8 °F 42.9 °F 30.00 in WNW 19.0 mph 30.0 mph 83 % 0.00 in 44 W/m2
07:38 47.7 °F 42.8 °F 30.00 in WNW 19.0 mph 30.0 mph 83 % 0.00 in 49 W/m2
07:43 47.7 °F 42.8 °F 30.00 in WNW 18.0 mph 29.0 mph 83 % 0.00 in 56 W/m2
07:48 47.7 °F 43.1 °F 30.00 in West 17.0 mph 29.0 mph 84 % 0.00 in 62 W/m2
07:53 47.7 °F 43.1 °F 30.00 in West 16.0 mph 27.0 mph 84 % 0.00 in 65 W/m2
07:58 47.7 °F 43.1 °F 30.00 in West 15.0 mph 26.0 mph 84 % 0.00 in 65 W/m2
08:03 47.7 °F 43.1 °F 30.00 in West 15.0 mph 28.0 mph 84 % 0.00 in 67 W/m2
08:08 47.7 °F 43.4 °F 30.00 in West 17.0 mph 28.0 mph 85 % 0.00 in 67 W/m2
08:13 47.7 °F 43.4 °F 30.00 in West 16.0 mph 26.0 mph 85 % 0.00 in 74 W/m2
08:18 47.8 °F 43.2 °F 30.00 in West 16.0 mph 28.0 mph 84 % 0.00 in 67 W/m2
08:23 47.8 °F 43.2 °F 30.00 in West 15.0 mph 28.0 mph 84 % 0.00 in 62 W/m2
08:28 47.8 °F 43.2 °F 30.00 in West 14.0 mph 23.0 mph 84 % 0.00 in 58 W/m2
08:33 48.0 °F 43.4 °F 30.00 in West 14.0 mph 26.0 mph 84 % 0.00 in 49 W/m2
08:38 48.0 °F 43.4 °F 30.00 in West 15.0 mph 26.0 mph 84 % 0.00 in 44 W/m2
08:43 48.0 °F 43.4 °F 30.00 in West 15.0 mph 24.0 mph 84 % 0.00 in 53 W/m2
08:48 48.0 °F 43.4 °F 30.00 in West 14.0 mph 24.0 mph 84 % 0.00 in 54 W/m2
08:53 48.0 °F 43.4 °F 30.00 in West 14.0 mph 24.0 mph 84 % 0.00 in 81 W/m2
08:58 48.2 °F 43.6 °F 29.99 in West 14.0 mph 23.0 mph 84 % 0.00 in 88 W/m2
09:04 48.4 °F 43.8 °F 30.00 in West 14.0 mph 24.0 mph 84 % 0.00 in 49 W/m2
09:09 48.4 °F 43.8 °F 29.99 in West 15.0 mph 27.0 mph 84 % 0.00 in 53 W/m2
09:14 48.4 °F 43.8 °F 30.00 in West 14.0 mph 27.0 mph 84 % 0.00 in 44 W/m2
09:19 48.4 °F 43.8 °F 29.99 in West 13.0 mph 22.0 mph 84 % 0.00 in 76 W/m2
09:29 48.6 °F 43.9 °F 29.99 in West 11.0 mph 20.0 mph 84 % 0.00 in 109 W/m2
09:34 48.7 °F 44.1 °F 29.99 in West 10.0 mph 16.0 mph 84 % 0.00 in 109 W/m2
09:39 48.9 °F 44.0 °F 29.99 in West 10.0 mph 16.0 mph 83 % 0.00 in 125 W/m2
09:44 48.9 °F 44.0 °F 29.99 in West 10.0 mph 21.0 mph 83 % 0.00 in 76 W/m2
09:49 48.9 °F 44.0 °F 30.00 in West 10.0 mph 21.0 mph 83 % 0.00 in 69 W/m2
09:59 48.9 °F 44.0 °F 30.00 in West 10.0 mph 16.0 mph 83 % 0.00 in 79 W/m2
10:04 48.9 °F 44.3 °F 29.99 in West 12.0 mph 26.0 mph 84 % 0.00 in 158 W/m2
10:09 49.3 °F 44.6 °F 29.99 in West 12.0 mph 26.0 mph 84 % 0.00 in 241 W/m2
10:14 49.6 °F 45.0 °F 29.99 in West 12.0 mph 23.0 mph 84 % 0.00 in 380 W/m2
10:19 50.5 °F 45.6 °F 29.98 in West 14.0 mph 25.0 mph 83 % 0.00 in 413 W/m2
10:24 51.4 °F 45.8 °F 29.98 in West 15.0 mph 27.0 mph 81 % 0.00 in 490 W/m2
10:29 51.6 °F 45.7 °F 29.98 in West 16.0 mph 27.0 mph 80 % 0.00 in 290 W/m2
10:34 52.0 °F 46.0 °F 29.98 in West 16.0 mph 28.0 mph 80 % 0.00 in 290 W/m2
10:39 52.3 °F 46.0 °F 29.98 in West 14.0 mph 28.0 mph 79 % 0.00 in 454 W/m2
10:44 52.3 °F 45.7 °F 29.98 in West 14.0 mph 28.0 mph 78 % 0.00 in 336 W/m2
10:49 52.2 °F 45.8 °F 29.98 in West 16.0 mph 28.0 mph 79 % 0.00 in 279 W/m2
10:54 52.0 °F 45.7 °F 29.98 in West 17.0 mph 25.0 mph 79 % 0.00 in 193 W/m2
10:59 51.8 °F 45.5 °F 29.98 in West 15.0 mph 25.0 mph 79 % 0.00 in 193 W/m2
11:04 51.6 °F 45.7 °F 29.98 in West 14.0 mph 26.0 mph 80 % 0.00 in 302 W/m2
11:09 51.6 °F 45.7 °F 29.98 in West 15.0 mph 26.0 mph 80 % 0.00 in 304 W/m2
11:15 52.3 °F 46.4 °F 29.98 in West 16.0 mph 28.0 mph 80 % 0.00 in 626 W/m2
11:20 52.7 °F 46.4 °F 29.97 in West 16.0 mph 28.0 mph 79 % 0.00 in 619 W/m2
11:25 53.2 °F 46.6 °F 29.97 in West 15.0 mph 28.0 mph 78 % 0.00 in 432 W/m2
11:30 53.4 °F 46.4 °F 29.98 in West 17.0 mph 28.0 mph 77 % 0.00 in 464 W/m2
11:35 53.2 °F 46.2 °F 29.98 in West 17.0 mph 27.0 mph 77 % 0.00 in 473 W/m2
11:40 53.2 °F 46.2 °F 29.98 in West 16.0 mph 26.0 mph 77 % 0.00 in 385 W/m2
11:45 54.0 °F 46.6 °F 29.98 in West 16.0 mph 26.0 mph 76 % 0.00 in 385 W/m2
11:50 54.1 °F 46.4 °F 29.98 in West 16.0 mph 25.0 mph 75 % 0.00 in 316 W/m2
11:55 54.3 °F 46.9 °F 29.98 in West 13.0 mph 25.0 mph 76 % 0.00 in 431 W/m2
12:00 54.7 °F 47.3 °F 29.98 in West 13.0 mph 23.0 mph 76 % 0.00 in 519 W/m2
12:05 54.9 °F 47.1 °F 29.98 in West 15.0 mph 23.0 mph 75 % 0.00 in 325 W/m2
12:10 54.1 °F 46.4 °F 29.98 in West 15.0 mph 25.0 mph 75 % 0.00 in 357 W/m2
12:15 54.1 °F 46.7 °F 29.98 in West 15.0 mph 25.0 mph 76 % 0.00 in 443 W/m2
12:20 54.5 °F 47.1 °F 29.98 in West 15.0 mph 30.0 mph 76 % 0.00 in 443 W/m2
12:25 54.7 °F 46.6 °F 29.98 in West 16.0 mph 30.0 mph 74 % 0.00 in 568 W/m2
12:30 54.7 °F 46.6 °F 29.97 in West 17.0 mph 29.0 mph 74 % 0.00 in 789 W/m2
12:35 55.2 °F 47.4 °F 29.97 in West 18.0 mph 29.0 mph 75 % 0.00 in 671 W/m2
12:40 55.8 °F 47.2 °F 29.98 in West 18.0 mph 29.0 mph 73 % 0.00 in 439 W/m2
12:45 55.2 °F 46.7 °F 29.98 in West 19.0 mph 29.0 mph 73 % 0.00 in 385 W/m2
12:50 55.0 °F 46.9 °F 29.98 in West 16.0 mph 29.0 mph 74 % 0.00 in 371 W/m2
12:55 55.0 °F 46.9 °F 29.98 in West 15.0 mph 27.0 mph 74 % 0.00 in 555 W/m2
13:00 55.0 °F 46.9 °F 29.98 in WNW 16.0 mph 29.0 mph 74 % 0.00 in 285 W/m2
13:05 54.9 °F 46.7 °F 29.99 in WNW 15.0 mph 29.0 mph 74 % 0.00 in 230 W/m2
13:10 54.3 °F 46.6 °F 29.98 in WNW 14.0 mph 27.0 mph 75 % 0.00 in 186 W/m2
13:15 54.0 °F 46.6 °F 29.99 in West 14.0 mph 27.0 mph 76 % 0.00 in 320 W/m2
13:20 54.0 °F 46.6 °F 29.98 in West 15.0 mph 26.0 mph 76 % 0.00 in 380 W/m2
13:25 54.0 °F 46.6 °F 29.98 in West 16.0 mph 32.0 mph 76 % 0.00 in 457 W/m2
13:30 54.1 °F 47.1 °F 29.98 in West 16.0 mph 32.0 mph 77 % 0.00 in 399 W/m2
13:35 54.1 °F 46.7 °F 29.98 in West 16.0 mph 33.0 mph 76 % 0.00 in 315 W/m2
13:40 54.1 °F 46.7 °F 29.97 in WNW 15.0 mph 33.0 mph 76 % 0.00 in 276 W/m2
13:45 54.1 °F 46.7 °F 29.97 in WNW 16.0 mph 26.0 mph 76 % 0.00 in 309 W/m2
13:50 54.1 °F 46.7 °F 29.97 in West 16.0 mph 29.0 mph 76 % 0.00 in 301 W/m2
13:55 54.3 °F 46.9 °F 29.96 in West 14.0 mph 29.0 mph 76 % 0.00 in 325 W/m2
14:00 54.3 °F 46.9 °F 29.96 in West 14.0 mph 24.0 mph 76 % 0.00 in 545 W/m2
14:05 54.3 °F 46.9 °F 29.96 in West 16.0 mph 26.0 mph 76 % 0.00 in 429 W/m2
14:11 54.3 °F 47.3 °F 29.96 in West 16.0 mph 28.0 mph 77 % 0.00 in 327 W/m2
14:16 54.7 °F 47.3 °F 29.97 in West 17.0 mph 28.0 mph 76 % 0.00 in 714 W/m2
14:21 55.0 °F 48.0 °F 29.96 in West 14.0 mph 28.0 mph 77 % 0.00 in 304 W/m2
14:26 55.2 °F 47.4 °F 29.96 in WNW 13.0 mph 30.0 mph 75 % 0.00 in 308 W/m2
14:31 54.9 °F 47.1 °F 29.96 in West 14.0 mph 30.0 mph 75 % 0.00 in 276 W/m2
14:36 54.7 °F 46.9 °F 29.96 in West 17.0 mph 27.0 mph 75 % 0.00 in 373 W/m2
14:41 54.7 °F 47.6 °F 29.96 in WNW 18.0 mph 29.0 mph 77 % 0.00 in 768 W/m2
14:46 55.0 °F 48.0 °F 29.95 in WNW 18.0 mph 29.0 mph 77 % 0.00 in 700 W/m2
14:51 55.2 °F 47.8 °F 29.95 in WNW 18.0 mph 28.0 mph 76 % 0.00 in 557 W/m2
14:56 55.2 °F 47.4 °F 29.95 in WNW 17.0 mph 28.0 mph 75 % 0.00 in 501 W/m2
15:01 55.0 °F 47.3 °F 29.95 in West 18.0 mph 31.0 mph 75 % 0.00 in 359 W/m2
15:07 55.0 °F 47.6 °F 29.95 in West 19.0 mph 31.0 mph 76 % 0.00 in 497 W/m2
15:12 55.0 °F 47.6 °F 29.95 in WNW 19.0 mph 29.0 mph 76 % 0.00 in 563 W/m2
15:17 55.8 °F 48.0 °F 29.95 in WNW 19.0 mph 30.0 mph 75 % 0.00 in 557 W/m2
15:22 55.9 °F 47.8 °F 29.94 in WNW 19.0 mph 31.0 mph 74 % 0.00 in 557 W/m2
15:27 55.9 °F 47.8 °F 29.94 in WNW 18.0 mph 31.0 mph 74 % 0.00 in 810 W/m2
15:32 56.1 °F 46.8 °F 29.94 in WNW 18.0 mph 28.0 mph 71 % 0.00 in 726 W/m2
15:37 56.1 °F 46.8 °F 29.94 in WNW 18.0 mph 28.0 mph 71 % 0.00 in 719 W/m2
15:42 56.5 °F 46.8 °F 29.95 in WNW 18.0 mph 32.0 mph 70 % 0.00 in 833 W/m2
15:47 56.5 °F 46.4 °F 29.95 in WNW 18.0 mph 32.0 mph 69 % 0.00 in 684 W/m2
15:52 56.7 °F 46.2 °F 29.94 in WNW 17.0 mph 32.0 mph 68 % 0.00 in 422 W/m2
15:57 56.1 °F 45.7 °F 29.94 in WNW 19.0 mph 29.0 mph 68 % 0.00 in 341 W/m2
16:02 55.8 °F 46.1 °F 29.95 in WNW 19.0 mph 29.0 mph 70 % 0.00 in 640 W/m2
16:07 55.6 °F 46.3 °F 29.94 in WNW 17.0 mph 27.0 mph 71 % 0.00 in 406 W/m2
16:12 55.8 °F 46.5 °F 29.94 in WNW 14.0 mph 27.0 mph 71 % 0.00 in 591 W/m2
16:17 55.8 °F 45.7 °F 29.93 in WNW 15.0 mph 27.0 mph 69 % 0.00 in 613 W/m2
16:22 55.4 °F 45.0 °F 29.94 in WNW 18.0 mph 31.0 mph 68 % 0.00 in 515 W/m2
16:27 55.0 °F 44.3 °F 29.94 in WNW 18.0 mph 31.0 mph 67 % 0.00 in 483 W/m2
16:32 55.0 °F 44.3 °F 29.94 in WNW 16.0 mph 28.0 mph 67 % 0.00 in 522 W/m2
16:37 55.0 °F 43.9 °F 29.94 in WNW 15.0 mph 28.0 mph 66 % 0.00 in 499 W/m2
16:42 55.2 °F 44.1 °F 29.93 in WNW 14.0 mph 28.0 mph 66 % 0.00 in 455 W/m2
16:47 55.2 °F 43.2 °F 29.94 in WNW 15.0 mph 31.0 mph 64 % 0.00 in 459 W/m2
16:52 55.0 °F 43.1 °F 29.94 in WNW 17.0 mph 31.0 mph 64 % 0.00 in 329 W/m2
16:57 54.5 °F 42.6 °F 29.93 in WNW 17.0 mph 29.0 mph 64 % 0.00 in 345 W/m2
17:02 54.3 °F 42.4 °F 29.93 in WNW 18.0 mph 32.0 mph 64 % 0.00 in 381 W/m2
17:07 54.1 °F 41.4 °F 29.93 in WNW 18.0 mph 32.0 mph 62 % 0.00 in 385 W/m2
17:12 54.3 °F 42.0 °F 29.93 in WNW 17.0 mph 31.0 mph 63 % 0.00 in 390 W/m2
17:17 54.3 °F 41.6 °F 29.93 in WNW 16.0 mph 28.0 mph 62 % 0.00 in 373 W/m2
17:22 54.1 °F 41.4 °F 29.93 in WNW 19.0 mph 30.0 mph 62 % 0.00 in 279 W/m2
17:27 54.0 °F 41.2 °F 29.93 in WNW 19.0 mph 30.0 mph 62 % 0.00 in 294 W/m2
17:32 53.8 °F 41.1 °F 29.94 in WNW 19.0 mph 31.0 mph 62 % 0.00 in 318 W/m2
17:38 53.8 °F 41.5 °F 29.94 in WNW 17.0 mph 31.0 mph 63 % 0.00 in 313 W/m2
17:43 53.8 °F 40.6 °F 29.94 in WNW 16.0 mph 33.0 mph 61 % 0.00 in 272 W/m2
17:48 53.4 °F 40.3 °F 29.94 in WNW 17.0 mph 33.0 mph 61 % 0.00 in 227 W/m2
17:53 53.2 °F 40.1 °F 29.95 in WNW 16.0 mph 34.0 mph 61 % 0.00 in 246 W/m2
17:58 53.2 °F 40.1 °F 29.94 in WNW 17.0 mph 34.0 mph 61 % 0.00 in 279 W/m2
18:03 53.2 °F 40.1 °F 29.94 in WNW 16.0 mph 29.0 mph 61 % 0.00 in 272 W/m2
18:08 53.4 °F 39.9 °F 29.94 in WNW 14.0 mph 25.0 mph 60 % 0.00 in 239 W/m2
18:13 53.2 °F 40.1 °F 29.94 in WNW 16.0 mph 31.0 mph 61 % 0.00 in 225 W/m2
18:18 53.1 °F 39.5 °F 29.95 in WNW 18.0 mph 31.0 mph 60 % 0.00 in 211 W/m2
18:23 53.1 °F 39.5 °F 29.95 in WNW 16.0 mph 29.0 mph 60 % 0.00 in 197 W/m2
18:28 53.1 °F 39.1 °F 29.95 in WNW 14.0 mph 28.0 mph 59 % 0.00 in 181 W/m2
18:33 53.1 °F 39.1 °F 29.95 in WNW 14.0 mph 28.0 mph 59 % 0.00 in 169 W/m2
18:38 53.1 °F 38.7 °F 29.95 in WNW 14.0 mph 29.0 mph 58 % 0.00 in 153 W/m2
18:43 52.9 °F 38.5 °F 29.95 in WNW 15.0 mph 29.0 mph 58 % 0.00 in 137 W/m2
18:48 52.5 °F 38.6 °F 29.95 in WNW 15.0 mph 26.0 mph 59 % 0.00 in 125 W/m2
18:53 52.5 °F 39.5 °F 29.95 in WNW 14.0 mph 25.0 mph 61 % 0.00 in 114 W/m2
18:58 52.2 °F 38.7 °F 29.95 in WNW 16.0 mph 29.0 mph 60 % 0.00 in 95 W/m2
19:03 51.6 °F 38.6 °F 29.95 in WNW 17.0 mph 29.0 mph 61 % 0.00 in 77 W/m2
19:08 51.3 °F 38.7 °F 29.96 in WNW 17.0 mph 29.0 mph 62 % 0.00 in 70 W/m2
19:13 50.7 °F 38.6 °F 29.96 in WNW 16.0 mph 28.0 mph 63 % 0.00 in 65 W/m2
19:14 50.7 °F 39.0 °F 29.96 in WNW 16.0 mph 28.0 mph 64 % 0.00 in 63 W/m2
19:19 50.5 °F 39.2 °F 29.96 in WNW 16.0 mph 28.0 mph 65 % 0.00 in 53 W/m2
19:24 50.2 °F 38.9 °F 29.97 in WNW 15.0 mph 28.0 mph 65 % 0.00 in 42 W/m2
19:29 50.2 °F 38.9 °F 29.97 in WNW 11.0 mph 27.0 mph 65 % 0.00 in 21 W/m2
19:34 49.8 °F 38.9 °F 29.97 in WNW 9.0 mph 19.0 mph 66 % 0.00 in 18 W/m2
19:40 49.6 °F 38.7 °F 29.97 in WNW 11.0 mph 20.0 mph 66 % 0.00 in 16 W/m2
19:45 49.5 °F 38.6 °F 29.97 in WNW 11.0 mph 23.0 mph 66 % 0.00 in 12 W/m2
19:50 49.3 °F 38.4 °F 29.97 in WNW 12.0 mph 24.0 mph 66 % 0.00 in 9 W/m2
19:55 49.1 °F 38.6 °F 29.97 in WNW 12.0 mph 24.0 mph 67 % 0.00 in 7 W/m2
20:00 48.9 °F 38.4 °F 29.97 in WNW 11.0 mph 19.0 mph 67 % 0.00 in 5 W/m2
20:05 48.7 °F 38.6 °F 29.98 in WNW 10.0 mph 18.0 mph 68 % 0.00 in 0 W/m2
20:07 48.6 °F 38.5 °F 29.98 in WNW 9.0 mph 18.0 mph 68 % 0.00 in 0 W/m2
20:12 48.6 °F 38.5 °F 29.98 in WNW 8.0 mph 16.0 mph 68 % 0.00 in 0 W/m2
20:17 48.4 °F 38.7 °F 29.98 in WNW 9.0 mph 18.0 mph 69 % 0.00 in 0 W/m2
20:22 48.2 °F 38.5 °F 29.98 in WNW 10.0 mph 18.0 mph 69 % 0.00 in 0 W/m2
20:27 48.0 °F 38.7 °F 29.98 in WNW 9.0 mph 16.0 mph 70 % 0.00 in 0 W/m2
20:32 47.8 °F 38.9 °F 29.99 in WNW 9.0 mph 20.0 mph 71 % 0.00 in 0 W/m2
20:37 47.7 °F 38.7 °F 29.99 in WNW 10.0 mph 20.0 mph 71 % 0.00 in 0 W/m2
20:42 47.5 °F 38.9 °F 29.99 in WNW 11.0 mph 21.0 mph 72 % 0.00 in 0 W/m2
20:47 47.5 °F 38.9 °F 29.99 in WNW 13.0 mph 21.0 mph 72 % 0.00 in 0 W/m2
20:52 47.5 °F 38.9 °F 29.99 in WNW 14.0 mph 24.0 mph 72 % 0.00 in 0 W/m2
20:57 47.5 °F 38.9 °F 29.99 in WNW 14.0 mph 24.0 mph 72 % 0.00 in 0 W/m2
21:02 47.5 °F 38.9 °F 29.99 in WNW 14.0 mph 23.0 mph 72 % 0.00 in 0 W/m2
21:07 47.3 °F 39.1 °F 29.99 in WNW 13.0 mph 23.0 mph 73 % 0.00 in 0 W/m2
21:12 47.1 °F 38.9 °F 29.99 in WNW 13.0 mph 22.0 mph 73 % 0.00 in 0 W/m2
21:17 47.1 °F 39.3 °F 29.99 in WNW 14.0 mph 22.0 mph 74 % 0.00 in 0 W/m2
21:22 46.9 °F 39.1 °F 29.99 in West 13.0 mph 20.0 mph 74 % 0.00 in 0 W/m2
21:27 46.9 °F 39.1 °F 29.99 in West 11.0 mph 20.0 mph 74 % 0.00 in 0 W/m2
21:32 46.8 °F 38.9 °F 29.99 in WNW 10.0 mph 20.0 mph 74 % 0.00 in 0 W/m2
21:38 46.8 °F 39.3 °F 29.99 in WNW 8.0 mph 18.0 mph 75 % 0.00 in 0 W/m2
21:43 46.6 °F 39.1 °F 29.99 in WNW 8.0 mph 14.0 mph 75 % 0.00 in 0 W/m2
21:48 46.6 °F 39.1 °F 29.99 in WNW 9.0 mph 14.0 mph 75 % 0.00 in 0 W/m2
21:53 46.6 °F 39.1 °F 29.99 in WNW 9.0 mph 14.0 mph 75 % 0.00 in 0 W/m2
21:58 46.2 °F 39.1 °F 29.99 in WNW 10.0 mph 16.0 mph 76 % 0.00 in 0 W/m2
22:03 46.2 °F 39.1 °F 29.99 in WNW 11.0 mph 20.0 mph 76 % 0.00 in 0 W/m2
22:08 46.2 °F 38.7 °F 29.99 in WNW 11.0 mph 20.0 mph 75 % 0.00 in 0 W/m2
22:13 46.2 °F 39.1 °F 29.99 in WNW 11.0 mph 19.0 mph 76 % 0.00 in 0 W/m2
22:18 46.2 °F 39.1 °F 29.99 in WNW 12.0 mph 20.0 mph 76 % 0.00 in 0 W/m2
22:23 46.0 °F 38.9 °F 30.00 in WNW 11.0 mph 20.0 mph 76 % 0.00 in 0 W/m2
22:28 46.0 °F 38.9 °F 29.99 in WNW 10.0 mph 20.0 mph 76 % 0.00 in 0 W/m2
22:33 46.0 °F 38.9 °F 30.00 in WNW 10.0 mph 20.0 mph 76 % 0.00 in 0 W/m2
22:38 45.9 °F 38.7 °F 30.00 in WNW 9.0 mph 19.0 mph 76 % 0.00 in 0 W/m2
22:43 45.7 °F 38.9 °F 30.00 in WNW 7.0 mph 14.0 mph 77 % 0.00 in 0 W/m2
22:48 45.5 °F 38.7 °F 30.00 in WNW 8.0 mph 13.0 mph 77 % 0.00 in 0 W/m2
22:53 45.3 °F 38.9 °F 30.00 in WNW 9.0 mph 15.0 mph 78 % 0.00 in 0 W/m2
22:58 45.3 °F 38.9 °F 30.00 in WNW 9.0 mph 15.0 mph 78 % 0.00 in 0 W/m2
23:03 45.1 °F 38.7 °F 30.00 in WNW 9.0 mph 14.0 mph 78 % 0.00 in 0 W/m2
23:08 45.1 °F 39.0 °F 30.00 in WNW 9.0 mph 18.0 mph 79 % 0.00 in 0 W/m2
23:13 45.0 °F 39.2 °F 30.00 in WNW 9.0 mph 18.0 mph 80 % 0.00 in 0 W/m2
23:18 45.0 °F 39.2 °F 30.00 in WNW 10.0 mph 16.0 mph 80 % 0.00 in 0 W/m2
23:23 44.8 °F 39.0 °F 30.00 in WNW 8.0 mph 16.0 mph 80 % 0.00 in 0 W/m2
23:28 44.8 °F 39.0 °F 30.00 in WNW 8.0 mph 20.0 mph 80 % 0.00 in 0 W/m2
23:33 44.8 °F 39.3 °F 30.00 in WNW 9.0 mph 20.0 mph 81 % 0.00 in 0 W/m2
23:38 44.8 °F 39.3 °F 30.00 in WNW 10.0 mph 18.0 mph 81 % 0.00 in 0 W/m2
23:43 44.8 °F 39.3 °F 30.00 in WNW 11.0 mph 22.0 mph 81 % 0.00 in 0 W/m2
23:48 44.8 °F 39.0 °F 30.00 in WNW 13.0 mph 25.0 mph 80 % 0.00 in 0 W/m2
23:49 44.8 °F 39.0 °F 30.00 in WNW 13.0 mph 25.0 mph 80 % 0.00 in 0 W/m2
23:54 44.8 °F 39.0 °F 30.00 in WNW 12.0 mph 27.0 mph 80 % 0.00 in 0 W/m2
23:59 44.8 °F 39.0 °F 30.00 in WNW 12.0 mph 27.0 mph 80 % 0.00 in 0 W/m2
Delerius-Weather
Compliments of Weather Underground - 2.25 mb

Data updates at regular intervals.